| time (UTC) | temp F | wind direction | speed MPH | gust MPH | rain 1hr in | rain 24hr in | rain mn in | humidity % | barometer mb |
| 20260906114205 | 73 | 349 | 0.0 | 0.0 | 0.00 | 0.43 | 0.00 | 93 | 1010.9 |
| 20260906113705 | 73 | 22 | 0.0 | 0.0 | 0.00 | 0.43 | 0.00 | 93 | 1010.9 |
| 20260906113205 | 73 | 61 | 0.0 | 0.0 | 0.00 | 0.43 | 0.00 | 93 | 1010.9 |
| 20260906112705 | 73 | 41 | 0.0 | 0.0 | 0.00 | 0.43 | 0.00 | 93 | 1010.8 |
| 20260906112205 | 73 | 42 | 0.0 | 0.0 | 0.00 | 0.43 | 0.00 | 93 | 1010.6 |
| 20260906111205 | 73 | 54 | 0.0 | 0.0 | 0.00 | 0.43 | 0.00 | 93 | 1010.5 |
| 20260906110705 | 73 | 54 | 0.0 | 0.0 | 0.00 | 0.43 | 0.00 | 93 | 1010.5 |
| 20260906110206 | 73 | 54 | 0.0 | 0.0 | 0.00 | 0.43 | 0.00 | 93 | 1010.5 |
| 20260906105706 | 73 | 54 | 0.0 | 0.0 | 0.00 | 0.43 | 0.00 | 93 | 1010.4 |
| 20260906105205 | 73 | 54 | 0.0 | 0.0 | 0.00 | 0.43 | 0.00 | 93 | 1010.5 |
| 20260906104705 | 73 | 344 | 0.0 | 0.0 | 0.00 | 0.43 | 0.00 | 93 | 1010.5 |
| 20260906104205 | 73 | 344 | 0.0 | 0.0 | 0.00 | 0.43 | 0.00 | 93 | 1010.5 |
| 20260906103206 | 73 | 0 | 0.0 | 0.0 | 0.00 | 0.43 | 0.00 | 93 | 1010.5 |
| 20260906102705 | 73 | 30 | 0.0 | 0.0 | 0.00 | 0.43 | 0.00 | 93 | 1010.4 |
| 20260906101705 | 73 | 30 | 0.0 | 0.0 | 0.00 | 0.43 | 0.00 | 94 | 1010.3 |
| 20260906101205 | 73 | 30 | 0.0 | 0.0 | 0.00 | 0.43 | 0.00 | 94 | 1010.1 |
| 20260906100706 | 73 | 30 | 0.0 | 0.0 | 0.00 | 0.43 | 0.00 | 94 | 1010.0 |
| 20260906095705 | 72 | 30 | 0.0 | 0.0 | 0.00 | 0.43 | 0.00 | 94 | 1009.7 |
| 20260906095205 | 72 | 30 | 0.0 | 0.0 | 0.00 | 0.43 | 0.00 | 93 | 1009.6 |
| 20260906093705 | 72 | 30 | 0.0 | 0.0 | 0.00 | 0.43 | 0.00 | 92 | 1009.5 |
| 20260906093205 | 72 | 30 | 0.0 | 0.0 | 0.00 | 0.43 | 0.00 | 92 | 1009.6 |
| 20260906092705 | 73 | 30 | 0.0 | 0.0 | 0.00 | 0.43 | 0.00 | 93 | 1009.5 |
| 20260906092205 | 72 | 30 | 0.0 | 0.0 | 0.00 | 0.43 | 0.00 | 93 | 1009.4 |
| 20260906091705 | 72 | 30 | 0.0 | 0.0 | 0.00 | 0.43 | 0.00 | 92 | 1009.4 |
| 20260906091204 | 73 | 30 | 0.0 | 0.0 | 0.00 | 0.43 | 0.00 | 92 | 1009.4 |
| 20260906090705 | 73 | 30 | 0.0 | 0.0 | 0.00 | 0.43 | 0.00 | 92 | 1009.4 |
| 20260906090205 | 73 | 30 | 0.0 | 0.0 | 0.00 | 0.43 | 0.00 | 92 | 1009.4 |
| 20260906085205 | 74 | 30 | 0.0 | 0.0 | 0.00 | 0.43 | 0.00 | 92 | 1009.5 |
| 20260906084705 | 74 | 30 | 0.0 | 0.0 | 0.00 | 0.43 | 0.00 | 92 | 1009.4 |
| 20260906084205 | 75 | 302 | 0.0 | 0.0 | 0.00 | 0.43 | 0.00 | 92 | 1009.4 |
| 20260906083705 | 75 | 302 | 0.0 | 0.0 | 0.00 | 0.43 | 0.00 | 93 | 1009.4 |
| 20260906083205 | 75 | 302 | 0.0 | 0.0 | 0.00 | 0.43 | 0.00 | 93 | 1009.4 |
| 20260906082205 | 75 | 261 | 0.0 | 0.0 | 0.00 | 0.43 | 0.00 | 93 | 1009.5 |
| 20260906081705 | 75 | 272 | 0.0 | 0.0 | 0.00 | 0.43 | 0.00 | 93 | 1009.5 |
| 20260906081205 | 75 | 306 | 0.0 | 0.0 | 0.00 | 0.43 | 0.00 | 93 | 1009.4 |
| 20260906080705 | 75 | 327 | 0.0 | 0.0 | 0.00 | 0.43 | 0.00 | 93 | 1009.3 |
| 20260906080205 | 75 | 298 | 0.0 | 0.0 | 0.00 | 0.43 | 0.00 | 93 | 1009.4 |
| 20260906075705 | 75 | 293 | 0.0 | 0.0 | 0.00 | 0.43 | 0.00 | 93 | 1009.5 |
| 20260906074705 | 75 | 299 | 0.0 | 0.0 | 0.00 | 0.43 | 0.00 | 93 | 1009.5 |
| 20260906074205 | 75 | 296 | 0.0 | 0.0 | 0.00 | 0.43 | 0.00 | 93 | 1009.5 |
| 20260906073705 | 75 | 296 | 0.0 | 0.0 | 0.00 | 0.43 | 0.00 | 92 | 1009.7 |
| 20260906073205 | 75 | 296 | 0.0 | 0.0 | 0.00 | 0.43 | 0.00 | 93 | 1009.8 |
| 20260906072705 | 75 | 296 | 0.0 | 0.0 | 0.00 | 0.43 | 0.00 | 93 | 1009.8 |
| 20260906072205 | 74 | 296 | 0.0 | 0.0 | 0.00 | 0.43 | 0.00 | 92 | 1009.8 |
| 20260906071705 | 74 | 296 | 0.0 | 0.0 | 0.00 | 0.43 | 0.00 | 92 | 1010.0 |
| 20260906071205 | 75 | 296 | 0.0 | 0.0 | 0.00 | 0.43 | 0.00 | 92 | 1010.1 |
| 20260906070705 | 75 | 296 | 0.0 | 0.0 | 0.00 | 0.43 | 0.00 | 93 | 1010.1 |
| 20260906070205 | 75 | 296 | 0.0 | 0.0 | 0.00 | 0.43 | 0.00 | 93 | 1010.2 |
| 20260906065705 | 74 | 296 | 0.0 | 0.0 | 0.00 | 0.43 | 0.00 | 92 | 1010.3 |
| 20260906065205 | 74 | 296 | 0.0 | 0.0 | 0.00 | 0.43 | 0.00 | 92 | 1010.3 |
| 20260906064705 | 74 | 296 | 0.0 | 0.0 | 0.00 | 0.43 | 0.00 | 92 | 1010.2 |
| 20260906064205 | 75 | 296 | 0.0 | 0.0 | 0.00 | 0.43 | 0.00 | 92 | 1010.2 |
| 20260906063205 | 74 | 296 | 0.0 | 0.0 | 0.00 | 0.43 | 0.00 | 93 | 1010.2 |
| 20260906062705 | 74 | 296 | 0.0 | 0.0 | 0.00 | 0.43 | 0.00 | 93 | 1010.1 |
| 20260906062206 | 74 | 296 | 0.0 | 0.0 | 0.00 | 0.43 | 0.00 | 92 | 1010.2 |
| 20260906061705 | 74 | 296 | 0.0 | 0.0 | 0.00 | 0.43 | 0.00 | 92 | 1010.2 |
| 20260906061204 | 74 | 296 | 0.0 | 0.0 | 0.00 | 0.43 | 0.00 | 92 | 1010.2 |
| 20260906060705 | 74 | 296 | 0.0 | 0.0 | 0.00 | 0.43 | 0.00 | 91 | 1010.2 |
| 20260906060205 | 75 | 296 | 0.0 | 0.0 | 0.00 | 0.43 | 0.00 | 91 | 1010.2 |
| 20260906055705 | 75 | 296 | 0.0 | 0.0 | 0.00 | 0.43 | 0.00 | 92 | 1010.2 |
| 20260906055205 | 76 | 296 | 0.0 | 0.0 | 0.00 | 0.43 | 0.00 | 92 | 1010.4 |
| 20260906054204 | 76 | 296 | 0.0 | 0.0 | 0.00 | 0.43 | 0.00 | 92 | 1010.5 |
| 20260906053706 | 75 | 296 | 0.0 | 0.0 | 0.00 | 0.43 | 0.00 | 92 | 1010.6 |
| 20260906052705 | 75 | 296 | 0.0 | 0.0 | 0.00 | 0.43 | 0.00 | 92 | 1010.6 |
| 20260906051705 | 75 | 325 | 0.0 | 0.0 | 0.00 | 0.43 | 0.00 | 92 | 1010.4 |
| 20260906051205 | 75 | 325 | 0.0 | 0.0 | 0.00 | 0.43 | 0.00 | 92 | 1010.3 |
| 20260906050705 | 75 | 325 | 0.0 | 0.0 | 0.00 | 0.43 | 0.00 | 92 | 1010.1 |
| 20260906050205 | 75 | 325 | 0.0 | 0.0 | 0.00 | 0.43 | 0.00 | 92 | 1010.1 |
| 20260906045705 | 75 | 325 | 0.0 | 0.0 | 0.00 | 0.43 | 0.00 | 92 | 1010.1 |
| 20260906044705 | 75 | 313 | 0.0 | 0.0 | 0.00 | 0.43 | 0.00 | 92 | 1010.3 |
| 20260906044205 | 75 | 313 | 0.0 | 0.0 | 0.00 | 0.43 | 0.00 | 92 | 1010.4 |
| 20260906043205 | 76 | 313 | 0.0 | 0.0 | 0.00 | 0.43 | 0.00 | 92 | 1010.8 |
| 20260906042205 | 75 | 11 | 0.0 | 0.0 | 0.00 | 0.43 | 0.00 | 92 | 1011.1 |
| 20260906041705 | 75 | 49 | 0.0 | 0.0 | 0.00 | 0.43 | 0.00 | 92 | 1011.2 |
| 20260906040205 | 75 | 98 | 0.0 | 1.0 | 0.00 | 0.43 | 0.00 | 92 | 1011.2 |
| 20260906035206 | 75 | 115 | 2.0 | 5.0 | 0.00 | 0.43 | 0.43 | 92 | 1011.2 |
| 20260906034705 | 75 | 140 | 1.0 | 5.0 | 0.00 | 0.43 | 0.43 | 92 | 1011.2 |
| 20260906034206 | 75 | 155 | 2.0 | 5.0 | 0.00 | 0.43 | 0.43 | 92 | 1011.2 |
| 20260906033705 | 75 | 179 | 0.0 | 2.0 | 0.00 | 0.43 | 0.43 | 92 | 1011.2 |
| 20260906033205 | 75 | 148 | 0.0 | 0.0 | 0.00 | 0.43 | 0.43 | 92 | 1011.2 |
| 20260906032704 | 75 | 169 | 0.0 | 0.0 | 0.00 | 0.43 | 0.43 | 91 | 1011.3 |
| 20260906032205 | 75 | 134 | 0.0 | 0.0 | 0.00 | 0.43 | 0.43 | 91 | 1011.4 |
| 20260906031205 | 76 | 128 | 0.0 | 2.0 | 0.00 | 0.43 | 0.43 | 92 | 1011.4 |
| 20260906030705 | 76 | 117 | 1.0 | 5.0 | 0.00 | 0.43 | 0.43 | 92 | 1011.5 |
| 20260906030205 | 76 | 164 | 1.0 | 5.0 | 0.00 | 0.43 | 0.43 | 92 | 1011.4 |
| 20260906025705 | 75 | 48 | 0.0 | 0.0 | 0.00 | 0.43 | 0.43 | 92 | 1011.4 |
| 20260906025205 | 75 | 324 | 1.0 | 5.0 | 0.00 | 0.43 | 0.43 | 92 | 1011.3 |
| 20260906024204 | 75 | 94 | 0.0 | 0.0 | 0.00 | 0.43 | 0.43 | 91 | 1010.7 |
| 20260906023705 | 75 | 94 | 0.0 | 0.0 | 0.00 | 0.43 | 0.43 | 91 | 1010.8 |
| 20260906022704 | 76 | 94 | 0.0 | 0.0 | 0.00 | 0.43 | 0.43 | 91 | 1010.7 |
| 20260906022205 | 76 | 94 | 0.0 | 0.0 | 0.00 | 0.43 | 0.43 | 91 | 1010.7 |
| 20260906021705 | 76 | 94 | 0.0 | 0.0 | 0.00 | 0.43 | 0.43 | 91 | 1010.8 |
| 20260906021205 | 76 | 94 | 0.0 | 0.0 | 0.00 | 0.43 | 0.43 | 91 | 1010.6 |
| 20260906020705 | 76 | 94 | 0.0 | 0.0 | 0.00 | 0.43 | 0.43 | 91 | 1010.5 |
| 20260906020205 | 76 | 94 | 0.0 | 0.0 | 0.00 | 0.43 | 0.43 | 91 | 1010.6 |
| 20260906015705 | 76 | 333 | 0.0 | 0.0 | 0.00 | 0.43 | 0.43 | 91 | 1010.6 |
| 20260906015205 | 76 | 333 | 0.0 | 0.0 | 0.00 | 0.43 | 0.43 | 91 | 1010.6 |
| 20260906014705 | 76 | 333 | 0.0 | 0.0 | 0.00 | 0.43 | 0.43 | 91 | 1010.7 |
| 20260906014205 | 76 | 304 | 0.0 | 0.0 | 0.00 | 0.43 | 0.43 | 91 | 1010.5 |
| 20260906013704 | 76 | 313 | 1.0 | 1.0 | 0.00 | 0.43 | 0.43 | 91 | 1010.6 |
| 20260906013205 | 76 | 348 | 2.0 | 5.0 | 0.00 | 0.43 | 0.43 | 91 | 1010.8 |
| 20260906012704 | 76 | 342 | 0.0 | 1.0 | 0.00 | 0.43 | 0.43 | 91 | 1010.8 |
| 20260906012205 | 76 | 344 | 0.0 | 1.0 | 0.00 | 0.43 | 0.43 | 91 | 1010.8 |
| 20260906011206 | 76 | 86 | 0.0 | 0.0 | 0.01 | 0.43 | 0.43 | 90 | 1010.6 |
| 20260906010705 | 76 | 86 | 0.0 | 0.0 | 0.01 | 0.43 | 0.43 | 90 | 1010.4 |
| 20260906010205 | 76 | 86 | 0.0 | 0.0 | 0.01 | 0.43 | 0.43 | 90 | 1010.2 |
| 20260906005704 | 76 | 86 | 0.0 | 0.0 | 0.01 | 0.43 | 0.43 | 90 | 1010.2 |
| 20260906005204 | 76 | 86 | 0.0 | 0.0 | 0.01 | 0.43 | 0.43 | 90 | 1010.3 |
| 20260906004705 | 76 | 86 | 0.0 | 0.0 | 0.01 | 0.43 | 0.43 | 90 | 1010.1 |
| 20260906004204 | 76 | 111 | 0.0 | 0.0 | 0.01 | 0.43 | 0.43 | 90 | 1010.2 |
| 20260906003705 | 76 | 152 | 0.0 | 1.0 | 0.01 | 0.43 | 0.43 | 90 | 1010.4 |
| 20260906003204 | 76 | 137 | 1.0 | 5.0 | 0.02 | 0.43 | 0.43 | 90 | 1010.7 |
| 20260906002705 | 76 | 272 | 2.0 | 5.0 | 0.11 | 0.43 | 0.43 | 89 | 1010.5 |
| 20260906002205 | 76 | 236 | 2.0 | 5.0 | 0.36 | 0.43 | 0.43 | 89 | 1010.4 |
| 20260906001705 | 76 | 226 | 1.0 | 2.0 | 0.41 | 0.42 | 0.42 | 89 | 1010.5 |
| 20260906001205 | 76 | 290 | 2.0 | 5.0 | 0.42 | 0.42 | 0.42 | 89 | 1010.5 |
| 20260906000205 | 76 | 11 | 3.0 | 5.0 | 0.42 | 0.42 | 0.42 | 89 | 1010.4 |
| 20260905235704 | 76 | 354 | 1.0 | 2.0 | 0.42 | 0.42 | 0.42 | 88 | 1010.5 |
| 20260905235205 | 76 | 147 | 2.0 | 3.0 | 0.42 | 0.42 | 0.42 | 87 | 1010.2 |
| 20260905234705 | 76 | 242 | 3.0 | 5.0 | 0.42 | 0.42 | 0.42 | 87 | 1010.4 |
| 20260905234204 | 76 | 240 | 2.0 | 3.0 | 0.42 | 0.42 | 0.42 | 86 | 1010.6 |
| 20260905233705 | 76 | 258 | 1.0 | 5.0 | 0.42 | 0.42 | 0.42 | 86 | 1010.7 |
| 20260905233205 | 76 | 290 | 2.0 | 6.0 | 0.41 | 0.41 | 0.41 | 83 | 1010.2 |
| 20260905232705 | 78 | 81 | 4.0 | 9.0 | 0.32 | 0.32 | 0.32 | 79 | 1010.4 |
| 20260905232205 | 80 | 25 | 3.0 | 7.0 | 0.07 | 0.07 | 0.07 | 75 | 1011.2 |
| 20260905231704 | 82 | 79 | 3.0 | 6.0 | 0.01 | 0.01 | 0.01 | 69 | 1011.3 |
| 20260905231205 | 83 | 49 | 3.0 | 8.0 | 0.00 | 0.00 | 0.00 | 67 | 1011.1 |
| 20260905230705 | 84 | 353 | 5.0 | 15.0 | 0.00 | 0.00 | 0.00 | 65 | 1011.1 |
| 20260905225704 | 87 | 30 | 1.0 | 5.0 | 0.00 | 0.00 | 0.00 | 79 | 1010.5 |
| 20260905225205 | 87 | 158 | 3.0 | 7.0 | 0.00 | 0.00 | 0.00 | 79 | 1009.8 |
| 20260905224705 | 88 | 276 | 2.0 | 7.0 | 0.00 | 0.00 | 0.00 | 79 | 1009.8 |
| 20260905224205 | 88 | 223 | 2.0 | 7.0 | 0.00 | 0.00 | 0.00 | 78 | 1009.6 |
| 20260905223705 | 88 | 140 | 2.0 | 5.0 | 0.00 | 0.00 | 0.00 | 79 | 1009.4 |
| 20260905223205 | 88 | 224 | 2.0 | 8.0 | 0.00 | 0.00 | 0.00 | 78 | 1009.2 |
| 20260905222704 | 88 | 154 | 4.0 | 8.0 | 0.00 | 0.00 | 0.00 | 78 | 1009.2 |
| 20260905221705 | 89 | 149 | 4.0 | 7.0 | 0.00 | 0.00 | 0.00 | 77 | 1009.2 |
| 20260905221204 | 89 | 146 | 4.0 | 8.0 | 0.00 | 0.00 | 0.00 | 76 | 1009.3 |
| 20260905220205 | 90 | 128 | 2.0 | 9.0 | 0.00 | 0.00 | 0.00 | 75 | 1008.9 |
| 20260905215705 | 90 | 117 | 4.0 | 7.0 | 0.00 | 0.00 | 0.00 | 75 | 1008.5 |
| 20260905214704 | 91 | 133 | 4.0 | 8.0 | 0.00 | 0.00 | 0.00 | 74 | 1008.3 |
| 20260905213705 | 92 | 202 | 3.0 | 7.0 | 0.00 | 0.00 | 0.00 | 73 | 1009.0 |
| 20260905213204 | 92 | 234 | 5.0 | 7.0 | 0.00 | 0.00 | 0.00 | 72 | 1009.0 |
| 20260905212704 | 93 | 245 | 3.0 | 6.0 | 0.00 | 0.00 | 0.00 | 72 | 1009.0 |
| 20260905212205 | 93 | 228 | 1.0 | 3.0 | 0.00 | 0.00 | 0.00 | 72 | 1009.1 |
| 20260905211705 | 93 | 205 | 1.0 | 5.0 | 0.00 | 0.00 | 0.00 | 70 | 1009.1 |
| 20260905211205 | 94 | 162 | 3.0 | 7.0 | 0.00 | 0.00 | 0.00 | 69 | 1008.9 |
| 20260905210704 | 95 | 211 | 3.0 | 7.0 | 0.00 | 0.00 | 0.00 | 67 | 1008.7 |
| 20260905210204 | 95 | 214 | 4.0 | 7.0 | 0.00 | 0.00 | 0.00 | 66 | 1008.7 |
| 20260905205704 | 96 | 210 | 4.0 | 6.0 | 0.00 | 0.00 | 0.00 | 61 | 1008.7 |
| 20260905204704 | 96 | 259 | 3.0 | 9.0 | 0.00 | 0.00 | 0.00 | 62 | 1008.8 |
| 20260905204204 | 96 | 270 | 4.0 | 10.0 | 0.00 | 0.00 | 0.00 | 61 | 1008.7 |
| 20260905203705 | 97 | 131 | 4.0 | 8.0 | 0.00 | 0.00 | 0.00 | 61 | 1008.8 |
| 20260905203204 | 97 | 264 | 4.0 | 7.0 | 0.00 | 0.00 | 0.00 | 62 | 1008.9 |
| 20260905202205 | 97 | 263 | 3.0 | 10.0 | 0.00 | 0.00 | 0.00 | 62 | 1008.8 |
| 20260905201204 | 96 | 234 | 3.0 | 8.0 | 0.00 | 0.00 | 0.00 | 63 | 1008.8 |
| 20260905200705 | 96 | 250 | 5.0 | 8.0 | 0.00 | 0.00 | 0.00 | 61 | 1008.8 |
| 20260905200204 | 97 | 251 | 5.0 | 12.0 | 0.00 | 0.00 | 0.00 | 60 | 1008.8 |
| 20260905195704 | 97 | 239 | 2.0 | 6.0 | 0.00 | 0.00 | 0.00 | 61 | 1008.8 |
| 20260905195204 | 96 | 206 | 3.0 | 6.0 | 0.00 | 0.00 | 0.00 | 62 | 1008.8 |
| 20260905194704 | 96 | 197 | 2.0 | 7.0 | 0.00 | 0.00 | 0.00 | 62 | 1008.9 |
| 20260905194205 | 96 | 222 | 5.0 | 7.0 | 0.00 | 0.00 | 0.00 | 61 | 1009.1 |
| 20260905193705 | 96 | 262 | 4.0 | 7.0 | 0.00 | 0.00 | 0.00 | 64 | 1009.1 |
| 20260905193204 | 96 | 254 | 3.0 | 8.0 | 0.00 | 0.00 | 0.00 | 63 | 1009.2 |
| 20260905192705 | 96 | 268 | 2.0 | 8.0 | 0.00 | 0.00 | 0.00 | 63 | 1009.3 |
| 20260905192205 | 96 | 222 | 5.0 | 9.0 | 0.00 | 0.00 | 0.00 | 61 | 1009.5 |
| 20260905191705 | 96 | 235 | 3.0 | 7.0 | 0.00 | 0.00 | 0.00 | 64 | 1009.6 |
| 20260905191204 | 96 | 249 | 3.0 | 5.0 | 0.00 | 0.00 | 0.00 | 64 | 1009.7 |
| 20260905190704 | 95 | 246 | 3.0 | 8.0 | 0.00 | 0.00 | 0.00 | 64 | 1009.8 |
| 20260905190204 | 95 | 241 | 2.0 | 8.0 | 0.00 | 0.00 | 0.00 | 66 | 1009.9 |
| 20260905185704 | 96 | 252 | 4.0 | 6.0 | 0.00 | 0.00 | 0.00 | 63 | 1010.0 |
| 20260905185205 | 96 | 264 | 1.0 | 2.0 | 0.00 | 0.00 | 0.00 | 62 | 1010.1 |
| 20260905184705 | 95 | 327 | 3.0 | 8.0 | 0.00 | 0.00 | 0.00 | 64 | 1010.3 |
| 20260905184204 | 95 | 303 | 2.0 | 7.0 | 0.00 | 0.00 | 0.00 | 65 | 1010.4 |
| 20260905183705 | 94 | 111 | 1.0 | 2.0 | 0.00 | 0.00 | 0.00 | 65 | 1010.5 |
| 20260905183204 | 94 | 33 | 1.0 | 3.0 | 0.00 | 0.00 | 0.00 | 66 | 1010.5 |
| 20260905182704 | 95 | 75 | 2.0 | 5.0 | 0.00 | 0.00 | 0.00 | 64 | 1010.6 |
| 20260905182205 | 95 | 235 | 3.0 | 6.0 | 0.00 | 0.00 | 0.00 | 64 | 1010.7 |
| 20260905181704 | 95 | 288 | 2.0 | 7.0 | 0.00 | 0.00 | 0.00 | 65 | 1010.7 |
| 20260905181205 | 95 | 209 | 3.0 | 8.0 | 0.00 | 0.00 | 0.00 | 65 | 1010.7 |
| 20260905180705 | 95 | 316 | 2.0 | 7.0 | 0.00 | 0.00 | 0.00 | 67 | 1010.8 |
| 20260905180204 | 94 | 284 | 0.0 | 5.0 | 0.00 | 0.00 | 0.00 | 66 | 1010.9 |
| 20260905175704 | 94 | 258 | 3.0 | 6.0 | 0.00 | 0.00 | 0.00 | 65 | 1010.9 |
| 20260905175205 | 94 | 250 | 5.0 | 10.0 | 0.00 | 0.00 | 0.00 | 66 | 1010.9 |
| 20260905174704 | 94 | 260 | 1.0 | 9.0 | 0.00 | 0.00 | 0.00 | 68 | 1011.1 |
| 20260905174204 | 94 | 258 | 6.0 | 8.0 | 0.00 | 0.00 | 0.00 | 66 | 1011.2 |
| 20260905173704 | 95 | 252 | 2.0 | 12.0 | 0.00 | 0.00 | 0.00 | 65 | 1011.2 |
| 20260905173204 | 94 | 305 | 3.0 | 9.0 | 0.00 | 0.00 | 0.00 | 66 | 1011.2 |
| 20260905172704 | 93 | 330 | 2.0 | 6.0 | 0.00 | 0.00 | 0.00 | 68 | 1011.2 |
| 20260905172204 | 93 | 245 | 5.0 | 7.0 | 0.00 | 0.00 | 0.00 | 67 | 1011.3 |
| 20260905171204 | 94 | 289 | 3.0 | 6.0 | 0.00 | 0.00 | 0.00 | 68 | 1011.3 |
| 20260905170705 | 93 | 219 | 2.0 | 8.0 | 0.00 | 0.00 | 0.00 | 69 | 1011.3 |
| 20260905170204 | 93 | 294 | 2.0 | 7.0 | 0.00 | 0.00 | 0.00 | 69 | 1011.5 |
| 20260905165205 | 93 | 256 | 5.0 | 10.0 | 0.00 | 0.00 | 0.00 | 67 | 1011.7 |
| 20260905164705 | 93 | 301 | 3.0 | 7.0 | 0.00 | 0.00 | 0.00 | 67 | 1011.8 |
| 20260905164205 | 93 | 292 | 3.0 | 9.0 | 0.00 | 0.00 | 0.00 | 70 | 1011.8 |
| 20260905163204 | 92 | 290 | 6.0 | 8.0 | 0.00 | 0.00 | 0.00 | 69 | 1012.0 |
| 20260905162705 | 91 | 249 | 1.0 | 7.0 | 0.00 | 0.00 | 0.00 | 73 | 1012.1 |
| 20260905162205 | 91 | 281 | 1.0 | 6.0 | 0.00 | 0.00 | 0.00 | 73 | 1012.1 |
| 20260905161705 | 90 | 266 | 6.0 | 9.0 | 0.00 | 0.00 | 0.00 | 72 | 1012.2 |
| 20260905160704 | 91 | 243 | 4.0 | 7.0 | 0.00 | 0.00 | 0.00 | 72 | 1012.3 |
| 20260905160204 | 90 | 293 | 5.0 | 9.0 | 0.00 | 0.00 | 0.00 | 73 | 1012.4 |
| 20260905155705 | 91 | 265 | 4.0 | 8.0 | 0.00 | 0.00 | 0.00 | 72 | 1012.5 |
| 20260905155204 | 90 | 305 | 4.0 | 10.0 | 0.00 | 0.00 | 0.00 | 74 | 1012.6 |
| 20260905154204 | 89 | 303 | 4.0 | 7.0 | 0.00 | 0.00 | 0.00 | 75 | 1012.6 |
| 20260905153704 | 89 | 260 | 4.0 | 10.0 | 0.00 | 0.00 | 0.00 | 75 | 1012.6 |
| 20260905153204 | 89 | 257 | 5.0 | 9.0 | 0.00 | 0.00 | 0.00 | 76 | 1012.7 |
| 20260905152704 | 89 | 228 | 5.0 | 8.0 | 0.00 | 0.00 | 0.00 | 75 | 1012.8 |
| 20260905152205 | 88 | 281 | 5.0 | 8.0 | 0.00 | 0.00 | 0.00 | 76 | 1012.9 |
| 20260905151704 | 88 | 251 | 6.0 | 9.0 | 0.00 | 0.00 | 0.00 | 75 | 1012.9 |
| 20260905151204 | 88 | 245 | 2.0 | 7.0 | 0.00 | 0.00 | 0.00 | 76 | 1013.0 |
| 20260905150705 | 88 | 303 | 2.0 | 6.0 | 0.00 | 0.00 | 0.00 | 77 | 1012.9 |
| 20260905150204 | 87 | 268 | 3.0 | 7.0 | 0.00 | 0.00 | 0.00 | 77 | 1013.0 |
| 20260905145205 | 88 | 265 | 3.0 | 8.0 | 0.00 | 0.00 | 0.00 | 77 | 1013.1 |
| 20260905144204 | 87 | 292 | 5.0 | 12.0 | 0.00 | 0.00 | 0.00 | 78 | 1013.1 |
| 20260905143705 | 86 | 281 | 6.0 | 9.0 | 0.00 | 0.00 | 0.00 | 78 | 1013.2 |
| 20260905143204 | 86 | 273 | 5.0 | 9.0 | 0.00 | 0.00 | 0.00 | 78 | 1013.2 |
| 20260905142704 | 86 | 261 | 4.0 | 8.0 | 0.00 | 0.00 | 0.00 | 79 | 1013.4 |
| 20260905142204 | 86 | 263 | 5.0 | 9.0 | 0.00 | 0.00 | 0.00 | 79 | 1013.5 |
| 20260905141704 | 86 | 277 | 4.0 | 7.0 | 0.00 | 0.00 | 0.00 | 80 | 1013.5 |
| 20260905140704 | 85 | 277 | 4.0 | 12.0 | 0.00 | 0.00 | 0.00 | 81 | 1013.5 |
| 20260905140205 | 85 | 274 | 5.0 | 9.0 | 0.00 | 0.00 | 0.00 | 80 | 1013.5 |
| 20260905135704 | 85 | 266 | 3.0 | 7.0 | 0.00 | 0.00 | 0.00 | 82 | 1013.5 |
| 20260905134705 | 84 | 291 | 5.0 | 9.0 | 0.00 | 0.00 | 0.00 | 82 | 1013.5 |
| 20260905134204 | 84 | 294 | 3.0 | 10.0 | 0.00 | 0.00 | 0.00 | 82 | 1013.5 |
| 20260905133704 | 84 | 299 | 5.0 | 10.0 | 0.00 | 0.00 | 0.00 | 84 | 1013.4 |
| 20260905133204 | 83 | 287 | 5.0 | 12.0 | 0.00 | 0.00 | 0.00 | 83 | 1013.4 |
| 20260905132705 | 83 | 276 | 6.0 | 10.0 | 0.00 | 0.00 | 0.00 | 83 | 1013.3 |
| 20260905132205 | 83 | 293 | 4.0 | 8.0 | 0.00 | 0.00 | 0.00 | 84 | 1013.3 |
| 20260905131204 | 82 | 280 | 3.0 | 9.0 | 0.00 | 0.00 | 0.00 | 86 | 1013.4 |
| 20260905130705 | 82 | 300 | 3.0 | 9.0 | 0.00 | 0.00 | 0.00 | 87 | 1013.4 |
| 20260905130204 | 81 | 268 | 5.0 | 9.0 | 0.00 | 0.00 | 0.00 | 87 | 1013.4 |
| 20260905125704 | 81 | 269 | 4.0 | 12.0 | 0.00 | 0.00 | 0.00 | 88 | 1013.5 |
| 20260905125204 | 81 | 252 | 5.0 | 8.0 | 0.00 | 0.00 | 0.00 | 88 | 1013.5 |
| 20260905124704 | 80 | 250 | 5.0 | 10.0 | 0.00 | 0.00 | 0.00 | 88 | 1013.5 |
| 20260905124205 | 80 | 243 | 5.0 | 8.0 | 0.00 | 0.00 | 0.00 | 88 | 1013.5 |
| 20260905123704 | 80 | 289 | 4.0 | 8.0 | 0.00 | 0.00 | 0.00 | 89 | 1013.5 |
| 20260905123204 | 80 | 298 | 4.0 | 7.0 | 0.00 | 0.00 | 0.00 | 89 | 1013.5 |
| 20260905122705 | 79 | 275 | 3.0 | 7.0 | 0.00 | 0.00 | 0.00 | 90 | 1013.4 |
| 20260905122205 | 79 | 271 | 3.0 | 8.0 | 0.00 | 0.00 | 0.00 | 90 | 1013.4 |
| 20260905121704 | 79 | 276 | 3.0 | 8.0 | 0.00 | 0.00 | 0.00 | 90 | 1013.4 |
| 20260905120705 | 79 | 247 | 3.0 | 7.0 | 0.00 | 0.00 | 0.00 | 91 | 1013.3 |
| 20260905115204 | 78 | 270 | 2.0 | 7.0 | 0.00 | 0.00 | 0.00 | 92 | 1013.2 |
| 20260905114704 | 78 | 263 | 3.0 | 6.0 | 0.00 | 0.00 | 0.00 | 92 | 1013.2 |